Regional Weather Roundup
Issued by NWS

Home | Current Version | Previous Version | Text Only | Print | Product List | Glossary On
Versions: 1 2 3 4 5 6 7 8 9 10 11 12 13 14 15 16 17 18 19 20 21 22 23 24 25 26 27 28 29 30 31 32 33 34 35 36 37 38 39 40 41 42 43 44 45 46 47 48 49 50
000
ASUS43 KMKX 301721
RWRWI

WISCONSIN REGIONAL WEATHER ROUNDUP
NATIONAL WEATHER SERVICE MILWAUKEE/SULLIVAN WI
1200 PM CDT SUN APR 30 2017

NOTE: "FAIR" INDICATES FEW OR NO CLOUDS BELOW 12,000 FEET WITH NO
SIGNIFICANT WEATHER AND/OR OBSTRUCTIONS TO VISIBILITY.

WIZ001-002-006>008-014>016-023>028-301800-
NORTHWEST WISCONSIN

CITY           SKY/WX    TMP DP  RH WIND       PRES   REMARKS
SUPERIOR ARPT  CLOUDY    40  32  74 NE15G23   30.13F WCI  32
ASHLAND        CLOUDY    43  33  68 N15       30.12S
HAYWARD        CLOUDY    47  27  45 NE12      30.05F
SIREN          CLOUDY    45  26  47 NE13      30.04F
CUMBERLAND     LGT RAIN  43  30  61 NE12      30.01F
RICE LAKE      DRIZZLE   45  31  57 NE9       30.03F
CHETEK         CLOUDY    45  31  57 NE12G18   30.02F
LADYSMITH      CLOUDY    47  29  49 E14       30.03F
EAU CLAIRE     CLOUDY    46  33  60 E12       29.98F
MENOMONIE      CLOUDY    46  32  58 NE12      30.00S
NEW RICHMOND   LGT RAIN  42  32  67 NE13      30.01S
OSCEOLA        LGT RAIN  44  35  70 NE10      30.05S
$$

WIZ003>005-009-010-017-018-301800-
NORTH CENTRAL WISCONSIN

CITY           SKY/WX    TMP DP  RH WIND       PRES   REMARKS
MANITOWISH WTR CLOUDY    47  25  42 E13G22    30.06S
ARBOR VITAE    CLOUDY    46  27  47 E8G20     30.03F
WOODRUFF       CLOUDY    46  27  47 E8G20     30.03F
RHINELANDER    CLOUDY    48  29  47 E15G23    30.02F
EAGLE RIVER    CLOUDY    47  23  38 E12       30.04F
LAND O LAKES   CLOUDY    47  23  38 E12G20    30.07F
PHILLIPS       CLOUDY    45  28  51 NE14G20   30.03S
TOMAHAWK       CLOUDY    47  29  49 NE10G21   30.01F
MEDFORD        CLOUDY    44  33  65 E18G24    29.98F
MERRILL        CLOUDY    47  33  59 E15G21    30.00F
$$

WIZ029-030-035-036-043>047-301800-
CENTRAL WISCONSIN

CITY           SKY/WX    TMP DP  RH WIND       PRES   REMARKS
WAUSAU         CLOUDY    46  33  60 E14G23    29.97F
MOSINEE        CLOUDY    45  36  70 E12       29.99F
MARSHFIELD     CLOUDY    44  35  70 E16       29.96F
STEVENS POINT  CLOUDY    39  36  87 E14G20    29.99F WCI  31
WAUPACA        CLOUDY    43  39  87 NE9       30.01F FOG
WAUTOMA        LGT RAIN  41  38  89 E14G21    30.00R
WISC RAPIDS    CLOUDY    42  38  85 E17       29.99F
CAMP DOUGLAS   CLOUDY    43  37  81 E13G20    29.97S
$$

WIZ011>013-019>022-031-037>040-048>050-301800-
NORTHEAST WISCONSIN

CITY           SKY/WX    TMP DP  RH WIND       PRES   REMARKS
ANTIGO         CLOUDY    44  32  63 E18G24    30.01F
SHAWANO        CLOUDY    41  38  89 NE14      30.05R FOG
OCONTO         CLOUDY    37  36  94 NE15G24   30.04F WCI  28
STURGEON BAY   CLOUDY    37  36  93 NE14G24   30.03F FOG     WCI  29
GREEN BAY      CLOUDY    41  40  96 NE21G28   30.02R FOG
MANITOWOC      CLOUDY    39  37  92 NE15G24   29.99S WCI  31
APPLETON       CLOUDY    39  39 100 NE18G25   29.99R WCI  30
CLINTONVILLE   CLOUDY    39  36  87 NE12G24   30.03R FOG     WCI  32
OSHKOSH        LGT RAIN  40  37  89 NE13      30.00R FOG     WCI  32
$$

WIZ032>034-041-042-053>061-301800-
SOUTHWEST WISCONSIN

CITY           SKY/WX    TMP DP  RH WIND       PRES   REMARKS
LA CROSSE      CLOUDY    45  37  73 E8        29.96F
SPARTA         CLOUDY    42  38  85 NE14      29.97S
VIROQUA        CLOUDY    40  38  89 E17G23    29.93F WCI  32
BOSCOBEL       CLOUDY    44  39  82 E8        29.92F
PRAIRIE DU CHI CLOUDY    43  37  77 NE8G18    29.89F
PLATTEVILLE    CLOUDY    43  42  96 NE18G25   29.87F
$$

WIZ056-057-062-063-064-067-068-301800-
SOUTH CENTRAL WISCONSIN

CITY           SKY/WX    TMP DP  RH WIND       PRES   REMARKS
REEDSBURG      CLOUDY    40  40 100 E12G17    29.94  FOG     WCI  33
BARABOO/DELLS  DRIZZLE   40  39  95 NE14      29.95F WCI  33
LONE ROCK      CLOUDY    43  39  86 E14       29.93F
MINERAL POINT  CLOUDY    43  43 100 NE21G28   29.87F
MADISON        LGT RAIN  42  40  92 NE15      29.90F FOG
MIDDLETON      CLOUDY    43  43 100 NE12G17   29.93F
WATERTOWN      CLOUDY    42  42 100 NE8       29.94R FOG
MONROE         CLOUDY    43  43 100 NE22      29.86F
JANESVILLE     LGT RAIN  45  45 100 NE8         N/A  FOG
$$

WIZ051-052-058>065-066-070>072-301800-
SOUTHEAST WISCONSIN

CITY           SKY/WX    TMP DP  RH WIND       PRES   REMARKS
MILWAUKEE      LGT RAIN  42  41  96 NE16      29.92S VSB 3/4
WAUKESHA       CLOUDY    39  39 100 NE10G16   29.93R FOG     WCI  32
MILWAUKEE/TIMM DRIZZLE   39  37  93 NE12G20   29.95R FOG     WCI  32
RACINE         RAIN      43  41  93 N14       29.91S FOG
KENOSHA        LGT RAIN  43  41  93 NE13      29.89S FOG
FOND DU LAC    CLOUDY    41  36  82 NE13G18   29.99R
SHEBOYGAN      LGT RAIN  40  38  93 NE20      29.97R FOG     WCI  30
WEST BEND      DRIZZLE   39  39 100 NE14G20   29.95R WCI  31
JUNEAU         DRIZZLE   40  39  96 NE7       29.97R WCI  35
$$

LSZ147-162-301800-
LAKE SUPERIOR

STATION/POSITION TIME  TEMP    WIND        PRES    WAVE
                       AIR SEA DIR/SP/G            HT/PER
                 (UTC) (F)     (DEG/KT/KT) (MB)    (FT/S)
DEVILS ISLAND    1700   37      50/ 22/ 24 1021.8S
PORT WING        1700   39      30/ 18/ 21 1020.3S
SAXON HARBOR     1630   39      40/ 10/ 13 1019.6S
$$

LMZ867-665-643>646-301800-
LAKE MICHIGAN

STATION/POSITION TIME  TEMP    WIND        PRES    WAVE
                       AIR SEA DIR/SP/G            HT/PER
                 (UTC) (F)     (DEG/KT/KT) (MB)    (FT/S)
CHAMBERS ISLAND  1640   37      30/ 14/ 24 1017.9F
N MID LAKE BUOY  1650   37 37   60/ 21/ 25 1019.0F   5/ 6
NORTHPORT PIER   1640   37      60/ 15/ 23 1018.3F
KEWAUNEE LAKESHO 1654   38      30/ 19/ 25 1015.5F
SHEBOYGAN LAKESH 1700   39      20/ 20/ 23 1015.3R
PORT WASHINGTON  1640   41      30/ 13/ 19 1015.2R
MILWAUKEE LAKESH 1700   40      10/ 17/ 21   N/A
S MID LAKE BUOY  1650   42 40   50/ 12/ 14 1011.5R   5/ 5
KENOSHA   LAKESH 1700   42      10/ 20/ 22 1012.2
$$

TC  - TEMPERATURE IN CELSIUS
VSB - VISIBILITY IN STATUTE MILES
WCI - WIND CHILL INDEX
HX  - HEAT INDEX





USA.gov is the U.S. government's official web portal to all federal, state and local government web resources and services.